DECAYED

STARLINK-1694, 46544 (Decayed)

Orbit data source: Space-Track

STARLINK-1694, 46544 was a payload satellite owned by SpaceX/Seattle (US) in LEO that was launched on Tue, 06 Oct 2020 UTC via an FALCON 9 launch vehicle from the Air Force Eastern Test Range (AFETR). Payload-class satellites include a variety of spacecraft equipped with specific instruments for various scientific and technological missions. These include communications satellites like Starlink; space stations such as the ISS; scientific satellites like the Hubble; Earth observation satellites from companies like Planet Labs, Umbra, and HawkEye 360; GPS; miniature CubeSats for education and research; and military/defense satellites.

Not visible in the next 10 days
Identifier
46544, 2020-070N
Orbit
Decayed
Last TLE update
2 months ago
Origin
Manufacturer
SpaceX/Seattle
Mission
Decayed Commercial Communications
Bus & Motor
STARLINK, Unknown motor
Mass
260 kg wet, ~248 kg dry
Launch date (UTC)
2020-10-06 (5 years ago)
Launch vehicle
FALCON 9
Launch site
Air Force Eastern Test Range (AFETR)
Object type
Payload
Rocket body
Debris
Shape & HBR
Box + 1 Pan, 8.86 m
Radar Cross Section
13.562 m², Large (>1 m²)

Expand to show TLE details & history

TLE from 2 months ago
0 STARLINK-1694
1 46544U 20070N   25128.18855969  .25216979  12702-4  33642-3 0  9999
2 46544  53.0259  31.5728 0005363 355.1696 129.2360 16.48982657254535
Epoch: 2025-05-08T04:31Z
TLE epoch observation values (Epoch: 2025-05-08T04:31:31.557Z)
Latitude
41.34543°
Longitude
-123.76654°
Altitude
148.065 km
Speed
7.821 km/s
True Right ascension
11h 21m 30s
True Declination
41° 09' 32"
Sunlit
Object was in full shadow at epoch
Visualization orbit readout
Visualization observer readout
Orbital elements
Apogee altitude
145.805 km
Perigee altitude
138.811 km
Semi-major axis
6,520.445 km
Eccentricity
0.00054
Inclination
53.0259°
RAAN
31.5728°
Arg. of periapsis
355.1696°
True anomaly
Unknown
Mean anomaly
129.236°
Eccentric anomaly
Unknown
Mean motion
4.12218 °/min
Orbital period
87.33 mins
BSTAR
0.00033642
Loading maneuver chart data...
Loading SW <> Apogee altitude chart data...
Loading historical data...
Loading historical data...
Loading historical data...
Loading historical data...
Loading historical data...
Loading historical data...
Loading historical data...

STARLINK-1694 Visibility

Observer location: undefined°, undefined°

This satellite is decayed
Span
Click to sort rows by Start time (UTC) header in descending order
Start Az.
Max El. time (UTC)
Max El. Az.
Max El.
End time (UTC)
End Az.
|